CCA1286 ZLDH-ZBAA

Flight info

Callsign CCA1286
Flight time N/A
Altitude 31100
Route NIXUK W271 BOTKI W270 DKO W69 GUVBA GUVBA4E
Aircraft A321/M-SDE3FGHIRWY/LB1

Departure

Time 2026-04-25 02:14
Airport Dunhuang Mogao International Airport (ZLDH)

Arrival

Time N/A
Airport Beijing Capital International Airport (ZBAA)
Time Latitude Longitude Altitude Speed Heading
2026-04-25 01:58 40.16496 94.80605 3698 ft 0 kts 354°
2026-04-25 02:06 40.16476 94.80608 3700 ft 4 kts 351°
2026-04-25 02:06 40.16449 94.80615 3703 ft 4 kts 344°
2026-04-25 02:06 40.16424 94.80627 3700 ft 4 kts 332°
2026-04-25 02:06 40.16404 94.80647 3704 ft 4 kts 293°
2026-04-25 02:07 40.16401 94.80664 3709 ft 1 kts 264°
2026-04-25 02:07 40.16401 94.80666 3709 ft 0 kts 264°
2026-04-25 02:09 40.16401 94.80663 3697 ft 2 kts 264°
2026-04-25 02:09 40.16399 94.80638 3700 ft 3 kts 264°
2026-04-25 02:09 40.16397 94.80607 3697 ft 5 kts 264°
2026-04-25 02:10 40.16393 94.80554 3695 ft 7 kts 264°
2026-04-25 02:10 40.16387 94.80485 3697 ft 9 kts 264°
2026-04-25 02:10 40.16381 94.80398 3697 ft 11 kts 264°
2026-04-25 02:10 40.16372 94.80295 3697 ft 12 kts 264°
2026-04-25 02:11 40.16334 94.80240 3695 ft 9 kts 182°
2026-04-25 02:11 40.16257 94.80251 3696 ft 13 kts 173°
2026-04-25 02:11 40.16169 94.80262 3691 ft 12 kts 174°
2026-04-25 02:11 40.16114 94.80222 3689 ft 11 kts 255°
2026-04-25 02:12 40.16105 94.80109 3689 ft 14 kts 264°
2026-04-25 02:12 40.16093 94.79973 3688 ft 16 kts 263°
2026-04-25 02:12 40.16081 94.79814 3687 ft 19 kts 265°
2026-04-25 02:12 40.16068 94.79647 3687 ft 17 kts 264°
2026-04-25 02:13 40.16059 94.79524 3687 ft 9 kts 269°
2026-04-25 02:13 40.16082 94.79440 3688 ft 10 kts 293°
2026-04-25 02:13 40.16101 94.79366 3690 ft 8 kts 274°
2026-04-25 02:13 40.16094 94.79298 3690 ft 6 kts 249°
2026-04-25 02:14 40.16049 94.79305 3688 ft 9 kts 121°
2026-04-25 02:14 40.16048 94.79385 3689 ft 12 kts 84°
2026-04-25 02:14 40.16079 94.79766 3687 ft 77 kts 84°
2026-04-25 02:14 40.16154 94.80723 3693 ft 132 kts 84°
2026-04-25 02:15 40.16266 94.82118 3705 ft 174 kts 83°
2026-04-25 02:15 40.16397 94.83681 4285 ft 169 kts 83°
2026-04-25 02:15 40.16535 94.85192 4936 ft 167 kts 84°
2026-04-25 02:15 40.16671 94.86695 5551 ft 166 kts 84°
2026-04-25 02:16 40.16817 94.88182 6117 ft 164 kts 79°
2026-04-25 02:16 40.17414 94.89458 6511 ft 171 kts 44°
2026-04-25 02:16 40.18356 94.90424 6859 ft 175 kts 43°
2026-04-25 02:16 40.19357 94.91467 6987 ft 193 kts 42°
2026-04-25 02:17 40.20459 94.92625 7109 ft 212 kts 42°
2026-04-25 02:17 40.21653 94.93883 7243 ft 229 kts 41°
2026-04-25 02:17 40.22944 94.95252 7337 ft 252 kts 41°
2026-04-25 02:17 40.24364 94.96760 7582 ft 271 kts 41°
2026-04-25 02:18 40.25851 94.98337 8171 ft 278 kts 40°
2026-04-25 02:18 40.27367 94.99947 8862 ft 282 kts 40°
2026-04-25 02:18 40.28901 95.01576 9522 ft 287 kts 39°
2026-04-25 02:18 40.30462 95.03233 10122 ft 293 kts 39°
2026-04-25 02:19 40.32107 95.04981 10301 ft 315 kts 38°
2026-04-25 02:19 40.33864 95.06855 10418 ft 337 kts 38°
2026-04-25 02:19 40.35734 95.08856 10579 ft 356 kts 39°
2026-04-25 02:19 40.37673 95.10936 11053 ft 363 kts 39°
2026-04-25 02:20 40.39628 95.13041 11690 ft 366 kts 38°
2026-04-25 02:20 40.41606 95.15168 12326 ft 369 kts 38°
2026-04-25 02:20 40.43630 95.17271 12955 ft 373 kts 33°
2026-04-25 02:20 40.45897 95.18883 13529 ft 375 kts 20°